Terug naar catalogus

HAWK-14B

ActiefWetenschapSSO
NORAD 68436·PAYLOAD·🇺🇸 United States

Gelanceerd Mar 30, 2026 vanaf Vandenberg Space Force Base

Loading…

Volgende Passages (komende 24 uur)

TLE

VersSource: Space-Track

Epoch: Sep 14, 2026, 07:19 UTC

1 68436U 26067W   26257.30490044  .00003547  00000-0  17352-3 0  9994
2 68436  97.4647 214.5531 0004438  92.4209 267.7534 15.18841539 25468

Volg HAWK-14B in realtime met AllMySat

Download on the App Store